星链-2392 (STARLINK-2392 )

导读

STARLINK-2392是美国SpaceX公司星链(Starlink)星座中的一颗低轨通信卫星,于2021年3月11日发射入轨。作为星链快速扩张阶段的V1.5版本卫星,它配备激光星间链路,可减少对地面站的依赖,提升数据传输能力,旨在为全球提供高速低延迟互联网接入服务,是星链全球卫星互联网组网的组成部分,目前正常在轨运行,服务全球偏远地区网络覆盖与宽带通信需求。

基本信息
目录编号:
47811
目录名称:
STARLINK-2392
国际标识:
2021-018AA
轨道中心:
EARTH
卫星名称:
星链-2392
卫星全名:
星链-2392 (STARLINK-2392 )
卫星状态:
已陨落 最后检测时间 2025-01-07
发射日期:
2021-03-11 UTC
国别 :
美国 (US)
星等 :
--
轨道信息
数据来源 国际轨道数据
星历时间: 2025-01-07T22:50:03+0800
轨道信息已过期527天
半长轴: 6526.806km
偏心率: 0.0013355
轨道倾角: 53.047°
近地点辐角 183.405°
升交点赤经 326.008°
平近点角 337.661°
近地点: 139.954km
远地点: 157.388km
周期: 87.460分钟
每日圈数: 16.46462
详细信息
固有亮度:
5
最大亮度:
2.5
卫星平台:
Starlink V1.0
覆盖范围:
全球
运营商:
太空探索技术公司
运营商所在国:
美国
制造商(研发单位):
太空探索技术公司
制造商所在国:
美国
使用方式:
暂无
卫星简介
星链(Starlink)计划是由太空探索技术公司(SpaceX)提出的一个巨型低轨卫星互联网星座项目,计划在2019年至2024年间在太空搭建由约1.2万颗卫星组成的“星链”网络,其中1584颗将部署在地球上空550千米处的近地轨道,并从2020年开始工作。该卫星仍在工作。